CW7364 Weather Reports


time (UTC)temp
F
wind
direction
speed
knots
gust
knots
rain 1hr
in
rain 24hr
in
rain mn
in
humidity
%
barometer
mb
20260509185036 85 90 3.5 7.8 0.00 0.00 0.00 57 1009.2
20260509184016 85 135 1.7 7.0 0.00 0.00 0.00 56 1009.3
20260509183016 85 90 2.6 7.0 0.00 0.00 0.00 56 1009.4
20260509182016 85 23 0.9 4.3 0.00 0.00 0.00 61 1009.6
20260509181016 84 68 3.5 7.8 0.00 0.00 0.00 59 1009.7
20260509180016 83 68 3.5 7.8 0.00 0.00 0.00 60 1009.7
20260509175016 83 45 3.5 7.8 0.00 0.00 0.00 62 1009.8
20260509174016 83 293 3.5 7.0 0.00 0.00 0.00 63 1009.9
20260509173016 82 293 1.7 7.0 0.00 0.00 0.00 64 1010.0
20260509172016 81 23 4.3 7.8 0.00 0.00 0.00 63 1010.2
20260509171016 81 315 3.5 7.8 0.00 0.00 0.00 63 1010.3
20260509170016 81 293 4.3 8.7 0.00 0.00 0.00 64 1010.3
20260509165016 81 293 1.7 4.3 0.00 0.00 0.00 64 1010.4
20260509164016 81 293 4.3 8.7 0.00 0.00 0.00 63 1010.4
20260509163016 81 293 2.6 9.6 0.00 0.00 0.00 65 1010.6
20260509162015 80 293 2.6 7.8 0.00 0.00 0.00 65 1010.6
20260509161016 79 293 4.3 7.0 0.00 0.00 0.00 66 1010.6
20260509160016 78 315 3.5 7.8 0.00 0.00 0.00 67 1010.5
20260509155015 78 315 3.5 7.8 0.00 0.00 0.00 67 1010.6
20260509154016 78 293 2.6 7.0 0.00 0.00 0.00 67 1010.4
20260509153016 77 270 2.6 6.1 0.00 0.00 0.00 67 1010.5
20260509152015 76 293 3.5 7.0 0.00 0.00 0.00 69 1010.4
20260509151015 75 293 4.3 8.7 0.00 0.00 0.00 69 1010.4
20260509150015 75 270 3.5 7.0 0.00 0.00 0.00 70 1010.5
20260509145015 74 270 2.6 6.1 0.00 0.00 0.00 72 1010.5
20260509144035 73 293 3.5 7.0 0.00 0.00 0.00 74 1010.4
20260509143015 73 293 3.5 7.0 0.00 0.00 0.00 78 1010.4
20260509142015 72 293 2.6 5.2 0.00 0.00 0.00 81 1010.4
20260509141035 72 293 3.5 6.1 0.00 0.00 0.00 81 1010.5
20260509140015 71 270 2.6 3.5 0.00 0.00 0.00 82 1010.5
20260509135035 71 293 2.6 6.1 0.00 0.00 0.00 83 1010.5
20260509134037 70 293 2.6 6.1 0.00 0.00 0.00 85 1010.4
20260509133017 68 270 2.6 5.2 0.00 0.00 0.00 86 1010.3
20260509132017 67 293 3.5 7.0 0.00 0.00 0.00 88 1010.3
20260509131017 66 270 3.5 6.1 0.00 0.00 0.00 89 1010.3
20260509130017 66 293 1.7 3.5 0.00 0.00 0.00 90 1010.2
20260509125017 65 270 2.6 3.5 0.00 0.00 0.00 90 1010.2
20260509124017 65 293 1.7 2.6 0.00 0.00 0.00 91 1010.2
20260509123017 64 0.0 2.6 0.00 0.00 0.00 91 1010.1
20260509122017 64 0.0 0.0 0.00 0.00 0.00 91 1010.0
20260509121017 63 0.0 0.0 0.00 0.01 0.00 91 1009.9
20260509120017 63 0.0 0.0 0.00 0.02 0.00 91 1009.8
20260509115017 63 0.0 0.0 0.00 0.02 0.00 90 1009.8
20260509114017 64 0.0 0.0 0.00 0.02 0.00 91 1009.6
20260509113016 64 0.0 0.0 0.00 0.03 0.00 90 1009.8
20260509112017 65 0.0 0.0 0.00 0.04 0.00 91 1009.5
20260509111037 65 0.0 0.0 0.00 0.04 0.00 91 1009.5
20260509110017 64 0.0 0.0 0.00 0.04 0.00 91 1009.4
20260509105037 64 0.0 1.7 0.00 0.04 0.00 90 1009.4
20260509104017 65 270 0.9 2.6 0.00 0.04 0.00 90 1009.0
20260509103016 65 0.0 0.0 0.00 0.04 0.00 90 1008.9
20260509102017 66 0.0 0.0 0.00 0.04 0.00 90 1009.0
20260509101016 66 270 0.9 2.6 0.00 0.05 0.00 90 1008.8
20260509100016 67 23 2.6 8.7 0.00 0.05 0.00 90 1008.3
20260509095016 67 23 4.3 9.6 0.00 0.05 0.00 90 1008.1
20260509094016 67 45 5.2 10.4 0.00 0.05 0.00 89 1007.7
20260509093016 67 23 5.2 9.6 0.00 0.05 0.00 89 1007.7
20260509092037 68 45 6.1 11.3 0.00 0.05 0.00 89 1007.6
20260509091037 68 23 5.2 10.4 0.00 0.05 0.00 88 1007.6
20260509090036 68 23 6.1 11.3 0.00 0.05 0.00 88 1007.5
20260509085016 68 45 7.8 13.0 0.00 0.05 0.00 87 1007.5
20260509084016 68 23 7.0 13.0 0.00 0.05 0.00 86 1007.5
20260509083016 69 23 4.3 9.6 0.00 0.05 0.00 84 1007.8
20260509082016 69 270 3.5 7.8 0.00 0.05 0.00 83 1008.0
20260509081016 70 315 4.3 10.4 0.00 0.05 0.00 81 1007.9
20260509080016 71 0 6.1 12.2 0.00 0.05 0.00 77 1007.6
20260509075036 70 0 5.2 13.0 0.00 0.05 0.00 77 1007.3
20260509074036 71 135 0.9 2.6 0.00 0.05 0.00 79 1006.6
20260509073016 70 203 3.5 5.2 0.00 0.05 0.00 81 1007.0
20260509072016 70 203 0.9 2.6 0.00 0.05 0.00 84 1007.1
20260509071016 70 113 7.0 11.3 0.00 0.05 0.00 85 1007.2
20260509070016 69 135 3.5 9.6 0.00 0.05 0.00 87 1007.1
20260509065016 69 180 4.3 7.8 0.00 0.05 0.00 89 1008.5
20260509064036 69 203 4.3 7.8 0.00 0.05 0.00 89 1009.0
20260509063036 69 203 2.6 5.2 0.00 0.05 0.00 89 1009.1
20260509062016 69 203 2.6 4.3 0.00 0.05 0.00 89 1009.5
20260509061016 68 203 1.7 3.5 0.00 0.05 0.00 89 1009.9
20260509060015 68 225 2.6 4.3 0.00 0.05 0.00 89 1010.4
20260509055016 68 225 1.7 6.1 0.00 0.05 0.00 89 1010.5
20260509054015 68 225 0.9 2.6 0.00 0.05 0.00 88 1010.1
20260509053016 68 203 1.7 2.6 0.00 0.05 0.00 88 1010.1
20260509052016 68 203 1.7 2.6 0.00 0.05 0.00 88 1010.0
20260509051015 68 203 0.9 3.5 0.00 0.05 0.00 87 1010.0
20260509050036 69 0.0 1.7 0.00 0.05 0.05 87 1010.3
20260509045016 69 180 4.3 7.0 0.00 0.05 0.05 87 1010.1
20260509044016 69 180 2.6 3.5 0.00 0.05 0.05 87 1010.8
20260509043016 69 0.0 1.7 0.00 0.05 0.05 88 1011.3
20260509042036 69 23 2.6 5.2 0.00 0.05 0.05 88 1011.5
20260509041016 68 293 3.5 8.7 0.00 0.05 0.05 89 1011.5
20260509040016 68 113 0.9 3.5 0.00 0.05 0.05 87 1010.1
20260509035016 68 0.0 0.0 0.00 0.05 0.05 87 1009.1
20260509034036 68 0.0 2.6 0.00 0.05 0.05 87 1009.3
20260509033016 68 135 1.7 3.5 0.00 0.05 0.05 87 1008.9
20260509032036 68 158 3.5 6.1 0.00 0.05 0.05 86 1008.7
20260509031016 69 135 4.3 7.0 0.00 0.05 0.05 86 1008.7
20260509030016 68 113 5.2 8.7 0.00 0.05 0.05 86 1008.8
20260509025016 68 113 5.2 8.7 0.00 0.05 0.05 86 1008.6
20260509024016 68 90 5.2 8.7 0.00 0.05 0.05 86 1008.4
20260509023016 69 68 5.2 9.6 0.00 0.05 0.05 85 1008.8
20260509022015 69 68 4.3 7.8 0.00 0.05 0.05 84 1008.5
20260509021035 70 158 1.7 4.3 0.00 0.05 0.05 84 1007.7
20260509020016 70 158 1.7 5.2 0.00 0.05 0.05 83 1007.1
20260509015016 70 158 4.3 8.7 0.00 0.05 0.05 83 1006.5
20260509014035 71 158 3.5 7.0 0.00 0.05 0.05 82 1006.5
20260509013015 71 180 5.2 8.7 0.00 0.05 0.05 81 1006.3
20260509012016 71 180 4.3 7.8 0.00 0.05 0.05 81 1006.4
20260509011015 72 180 4.3 7.0 0.00 0.05 0.05 79 1006.8
20260509010015 72 180 4.3 8.7 0.00 0.05 0.05 79 1007.0
20260509005015 73 180 4.3 7.0 0.00 0.05 0.05 78 1007.2
20260509004015 73 180 4.3 7.8 0.00 0.05 0.05 77 1007.3
20260509003015 74 180 4.3 7.8 0.00 0.05 0.05 76 1007.3
20260509002017 74 203 5.2 8.7 0.00 0.05 0.05 75 1007.2
20260509001017 75 180 5.2 10.4 0.00 0.05 0.05 74 1007.0
20260509000017 75 158 5.2 8.7 0.00 0.05 0.05 73 1007.0
20260508235037 75 180 4.3 8.7 0.00 0.05 0.05 72 1006.9
20260508234017 75 180 5.2 8.7 0.00 0.05 0.05 72 1006.8
20260508233017 76 180 5.2 8.7 0.00 0.05 0.05 71 1006.9
20260508232017 76 180 5.2 10.4 0.00 0.05 0.05 70 1007.0
20260508231017 77 180 5.2 8.7 0.00 0.05 0.05 71 1007.1
20260508230037 77 180 6.1 10.4 0.00 0.05 0.05 70 1007.2
20260508225017 77 180 5.2 9.6 0.00 0.05 0.05 71 1007.3
20260508224017 77 180 5.2 11.3 0.00 0.05 0.05 70 1007.3
20260508223017 77 180 6.1 10.4 0.00 0.05 0.05 70 1007.3
20260508222017 78 180 4.3 10.4 0.00 0.05 0.05 70 1007.3
20260508221017 77 158 4.3 7.8 0.00 0.05 0.05 71 1007.3
20260508220017 77 158 5.2 10.4 0.00 0.05 0.05 70 1007.3
20260508215017 77 158 5.2 9.6 0.00 0.05 0.05 72 1007.4
20260508214016 77 158 5.2 10.4 0.00 0.05 0.05 70 1007.6
20260508213017 76 180 5.2 9.6 0.00 0.05 0.05 71 1007.5
20260508212017 76 135 6.1 9.6 0.00 0.05 0.05 71 1007.7
20260508211016 76 180 6.1 9.6 0.00 0.05 0.05 71 1007.8
20260508210017 76 180 6.1 11.3 0.00 0.05 0.05 70 1007.8
20260508205016 75 180 5.2 9.6 0.00 0.05 0.05 71 1008.2
20260508204016 75 180 6.1 9.6 0.00 0.05 0.05 71 1008.3
20260508203016 75 203 6.1 11.3 0.00 0.05 0.05 70 1008.6
20260508202016 75 180 8.7 13.0 0.00 0.05 0.05 71 1008.7
20260508201016 76 180 6.1 10.4 0.00 0.05 0.05 71 1008.9
20260508200016 76 180 6.1 11.3 0.00 0.05 0.05 71 1009.2
20260508195016 76 180 6.1 8.7 0.00 0.05 0.05 72 1009.3
20260508194016 75 203 6.1 9.6 0.00 0.05 0.05 71 1009.4
20260508193016 74 180 4.3 8.7 0.00 0.05 0.05 72 1009.5
20260508192016 75 203 2.6 6.1 0.00 0.05 0.05 72 1009.7
20260508191016 76 203 5.2 8.7 0.00 0.05 0.05 70 1009.9
20260508190016 76 225 3.5 7.8 0.00 0.05 0.05 70 1009.8